Regional Weather Roundup
Issued by NWS

Home | Current Version | Previous Version | Text Only | Print | Product List | Glossary On
Versions: 1 2 3 4 5 6 7 8 9 10 11 12 13 14 15 16 17 18 19 20 21 22 23 24 25 26 27 28 29 30 31 32 33 34 35 36 37 38 39 40 41 42 43 44 45 46 47 48 49 50
000
ASUS43 KLOT 210510
RWRIL

ILLINOIS REGIONAL WEATHER ROUNDUP
NATIONAL WEATHER SERVICE CHICAGO/ROMEOVILLE IL
1200 AM CDT TUE OCT 21 2014

NOTE: "FAIR" INDICATES FEW OR NO CLOUDS BELOW 12,000 FEET WITH NO
SIGNIFICANT WEATHER AND/OR OBSTRUCTIONS TO VISIBILITY.

* THESE STATIONS ARE NOT UNDER NWS QUALITY CONTROL. THEY ALSO MAY NOT
  REPORT WEATHER SUCH AS PRECIPITATION OR FOG.

ILZ001-002-007-009-015-016-024-210600-
NORTHWEST ILLINOIS

CITY           SKY/WX    TMP DP  RH WIND       PRES   REMARKS
MOLINE         CLEAR     46  41  82 CALM      30.03S
STERLING*      MOCLDY    43  37  81 CALM      30.03S
SAVANNA*       CLEAR     45  43  91 CALM      30.04S
$$

ILZ003-004-008-010-011-017-018-210600-
NORTH CENTRAL ILLINOIS

CITY           SKY/WX    TMP DP  RH WIND       PRES   REMARKS
ROCKFORD       CLOUDY    50  41  71 NW5       30.04S
FREEPORT*      CLOUDY    47  41  81 CALM      30.05S
ROCHELLE*      CLOUDY    46  41  84 CALM      30.02F
DE KALB*       CLOUDY    48  40  75 N5        30.01F
PERU*          PTCLDY    48  41  77 N5        30.02S
$$

ILZ005-006-012>014-019>023-210600-
NORTHEAST ILLINOIS

CITY           SKY/WX    TMP DP  RH WIND       PRES   REMARKS
CHICAGO-OHARE  CLOUDY    52  42  69 N8        29.99F
CHICAGO-MIDWAY MOCLDY    54  43  66 N10       29.99S
AURORA         CLOUDY    49  41  74 N5        30.01S
LANSING*       CLOUDY    52  44  73 N6        29.99S
JOLIET*        CLOUDY    52  41  67 CALM      30.00S
WAUKEGAN       CLOUDY    49  43  80 CALM      29.99F
DUPAGE AIRPORT CLOUDY    51  41  68 N8        30.00S
KANKAKEE*      CLOUDY    52  47  83 CALM      30.00F
WHEELING       CLOUDY    53  42  66 N6        30.01S
MORRIS*        CLOUDY    51  45  78 CALM      29.99F
ROMEOVILLE*    CLOUDY    51  41  66 NE6       29.99F
NORTHERLY ISL    N/A     52  46  80 N12         N/A
$$

LMZ740>746-210600-
SOUTHERN LAKE MICHIGAN

STATION/POSITION SKY/WX   TEMP    WIND        PRES    VSBY  WAVE
                          AIR SEA DIR/SP/G                  HT/PER
                          (F)     (DEG/KT/KT) (MB)    (MI)  (FT/S)
SOUTHERN BUOY              51 54  350/ 17/ 23 1015.2F         3/ 6
WAUKEGAN HARBOR            51     340/  7/  8   N/A
HARRISON CRIB              52     360/ 15/ 16   N/A
BURNHAM HARBOR             53     350/ 10/ 15   N/A
CALUMET HARBOR             53     330/  8/ 13 1014.4S
MICHIGAN CITY              53     340/ 19/ 22   N/A
$$

ILZ025>027-034>036-040-047-049-050-058-095>099-210600-
WEST-CENTRAL ILLINOIS

CITY           SKY/WX    TMP DP  RH WIND       PRES   REMARKS
QUINCY         CLEAR     51  43  74 W6        30.02S
GALESBURG*     CLEAR     42  39  90 NE5       30.02S
MACOMB*        CLEAR     45  41  86 NW7       30.03S
JACKSONVILLE*  CLEAR     51  44  76 W5        30.01S
PITTSFIELD*    CLEAR     51  44  77 W3        30.03S
$$

ILZ028>032-037-038-041>044-048-051>054-059>061-210600-
CENTRAL ILLINOIS

CITY           SKY/WX    TMP DP  RH WIND       PRES   REMARKS
PONTIAC        PTCLDY    48  43  81 CALM      30.01S
BLOOMINGTON    CLEAR     47  43  86 NE6       30.02S
DECATUR        CLEAR     49  43  80 N7        30.01S
PEORIA         CLEAR     50  42  74 NE7       30.02S
LACON*         CLEAR     42  38  85 CALM      30.02S
LINCOLN*       CLEAR     50  44  78 N3        30.00R
SPRINGFIELD    CLEAR     47  42  83 CALM      30.00F
TAYLORVILLE    CLEAR     46  43  87 CALM      30.00S
$$

ILZ033-039-045-046-055>057-062-063-210600-
EAST-CENTRAL ILLINOIS

CITY           SKY/WX    TMP DP  RH WIND       PRES   REMARKS
CHAMPAIGN      MOCLDY    51  46  83 E5        30.00S
DANVILLE*      CLOUDY    50  47  90 N3        29.97S
RANTOUL*       PTCLDY    51  46  80 N3        30.01S
MATTOON        PTCLDY    51  44  77 N6        29.99S
PARIS*         MOCLDY    51  47  84 CALM      30.00F
$$

ILZ079-100>102-210600-
SOUTHWEST ILLINOIS

CITY           SKY/WX    TMP DP  RH WIND       PRES   REMARKS
ALTON          CLEAR     51  44  76 CALM      30.02F
BELLEVILLE     FAIR      47  45  91 CALM      30.01F
CAHOKIA*       CLEAR     48  45  89 CALM      30.02F
SPARTA*        CLEAR     53  44  72 CALM      30.03F
$$

ILZ064>066-069>071-074>076-080>082-084>086-088>090-092>094-210600-
SOUTH-CENTRAL ILLINOIS

CITY           SKY/WX    TMP DP  RH WIND       PRES   REMARKS
CARBONDALE     CLEAR     49  45  86 CALM      30.02F
CAIRO*         FOG       52  49  89 CALM      30.02F VSB 3/4
EFFINGHAM*     CLEAR     47  43  84 CALM      30.00S
MARION         CLEAR     48  45  87 CALM      30.02F
MT. VERNON     CLEAR     45  39  81 CALM      30.01F
CENTRALIA*     CLEAR     49  44  81 CALM      30.01F
SALEM*         CLEAR     53  47  81 CALM      30.01F
METROPOLIS*    CLEAR     52  52 100 CALM      30.01S
$$

ILZ067-068-072-073-078-083-087-091-210600-
SOUTHEAST ILLINOIS

CITY           SKY/WX    TMP DP  RH WIND       PRES   REMARKS
LAWRENCEVILLE  CLEAR     50  45  83 NW5       29.99S
FLORA*         CLEAR     51  43  74 CALM      30.00F
FAIRFIELD*     CLEAR     51  45  80 CALM      30.00S
HARRISBURG*    CLEAR     53  45  75 NW5       30.02S
ROBINSON*      MOCLDY    51  46  82 NW6       30.00F
CARMI*         CLEAR     52  46  80 NW6       30.00S
$$

ABBREVIATIONS USED IN REMARKS
   TC - TEMPERATURE IN CELSIUS
  WCI - WIND CHILL INDEX
   HX - HEAT INDEX
  VSB - VISIBILITY
$$



USA.gov is the U.S. government's official web portal to all federal, state and local government web resources and services.